2000 NF11 

Epoch 2000 July 15.0 TT = JDT 2451740.5                 Nakano

M  47.91713              (2000.0)            P               Q

n   0.58195765     Peri.  115.69719     -0.48222113     +0.84989085

a   1.4208289      Node   123.83043     -0.86712563     -0.42852545

e   0.1891807      Incl.   14.82036     -0.12472338     -0.30667815

P   1.69           H   18.4           G   0.15           U   *

Residuals in seconds of arc 

000707 704  0.1+  0.3+    000712 557  0.1+  0.9-    000728 474  0.2+  0.8+  

000707 704  0.1-  0.6+    000712 557  1.3-  1.3-    000730 094  0.4+  1.0+  

000707 704  0.7+  0.2+    000713 557  1.0-  0.4-    000801 704  0.3+  0.3+  

000707 704  0.2+  0.6+    000713 557  0.2-  0.2-    000801 704  0.3+  0.7-  

000707 704  0.1+  0.2-    000713 557  0.5-  0.1-    000801 704  0.7+  2.0-  

000710 704  0.1+  0.2+    000713 557  0.3+  0.1-    000801 704  0.4-  0.1-  

000710 704  0.1-  0.4+    000722 413  0.2+  0.3-    000801 704  0.4-  0.3+  

000710 704  0.4+  0.1+    000722 413  0.1-  0.0     000804 360  0.5-  0.2+  

000711 658  0.4+  0.1+    000728 474  0.1+  0.6+    000804 360  0.3-  0.1-  

000711 658 (3.2+  1.6+)   000728 474  0.2+  0.8+    000804 360  0.2-  0.1-  

  

NAKANO

         **** Don't distribute anyone except personal use only ****

                (C) Copyright 2000 OAA/ComputingSection

write mail from CFAD0::NAKANO on 2000-08-05 23:04:25(JST).

 





–ß‚è‚Ü‚·B